Weather History for Warrensburg, MO

Change the Weather History Date:

Wednesday, August 29, 2012

  Actual Average (KSZL) Record (KSZL)
Temperature  
Mean Temperature 78 °F -  
Max Temperature 95 °F 85 °F 96 °F (2001)
Min Temperature 62 °F 65 °F 60 °F (2004)
Cooling Degree Days 14    
Growing Degree Days 28 (Base 50)    
Moisture  
Dew Point 55 °F    
Average Humidity 49    
Maximum Humidity 94    
Minimum Humidity 22    
Precipitation  
Precipitation 0.00 in - - ()
Sea Level Pressure  
Sea Level Pressure 30.00 in    
Wind  
Wind Speed 2 mph (ESE)    
Max Wind Speed 10 mph    
Max Gust Speed -    
Visibility 10 miles    
Events      
Averages and records for this station are not official NWS values.
T = Trace of Precipitation, MM = Missing Value Source: NWS Daily Summary

Daily Weather History Graph

Daily Weather History Graph

Search for Another Location

Airport:

Trip Planner

Search our weather history database for the weather conditions in past years. The results will help you decide how hot, cold, wet, or windy it might be!

Date:

Astronomy

Aug. 29, 2012 Rise Set
Actual Time 6:42 AM CDT 7:49 PM CDT
Civil Twilight 6:14 AM CDT 8:16 PM CDT
Nautical Twilight 5:41 AM CDT 8:49 PM CDT
Astronomical Twilight 5:07 AM CDT 9:23 PM CDT
Moon 6:29 PM CDT (8/29) 4:39 AM CDT (8/29)
Length of Visible Light 14h 01m
Length of Day
13h 07m
Waxing Gibbous, 96% of the Moon is Illuminated
Aug 29
Waxing Gibbous
Aug 31
Full
Sep 8
Last Quarter
Sep 15
New
Sep 22
First Quarter

Hourly Weather History & Observations

Time (CDT) Temp. Heat Index Dew Point Humidity Pressure Visibility Wind Dir Wind Speed Gust Speed Precip Events Conditions
12:15 AM 69.8 °F - 59.0 °F 68% 30.03 in 10.0 mi Calm Calm - N/A   Clear
12:35 AM 69.8 °F - 59.0 °F 68% 30.03 in 10.0 mi Calm Calm - N/A   Clear
1:35 AM 69.8 °F - 60.8 °F 73% 30.03 in 10.0 mi SE 3.5 mph - N/A   Clear
1:55 AM 68.0 °F - 60.8 °F 78% 30.03 in 10.0 mi South 3.5 mph - N/A   Clear
2:15 AM 68.0 °F - 59.0 °F 73% 30.02 in 10.0 mi South 4.6 mph - N/A   Clear
2:35 AM 69.8 °F - 57.2 °F 64% 30.02 in 10.0 mi SSE 4.6 mph - N/A   Clear
2:55 AM 69.8 °F - 59.0 °F 68% 30.02 in 10.0 mi Calm Calm - N/A   Clear
3:15 AM 68.0 °F - 59.0 °F 73% 30.02 in 10.0 mi Calm Calm - N/A   Clear
3:35 AM 68.0 °F - 57.2 °F 68% 30.01 in 10.0 mi Calm Calm - N/A   Clear
3:55 AM 64.4 °F - 59.0 °F 83% 30.02 in 10.0 mi Calm Calm - N/A   Clear
4:15 AM 62.6 °F - 60.8 °F 94% 30.02 in 10.0 mi Calm Calm - N/A   Clear
4:35 AM 64.4 °F - 60.8 °F 88% 30.02 in 10.0 mi Calm Calm - N/A   Clear
4:55 AM 64.4 °F - 60.8 °F 88% 30.02 in 10.0 mi Calm Calm - N/A   Clear
5:15 AM 64.4 °F - 60.8 °F 88% 30.02 in 10.0 mi Calm Calm - N/A   Clear
5:35 AM 62.6 °F - 59.0 °F 88% 30.02 in 10.0 mi Calm Calm - N/A   Clear
5:55 AM 62.6 °F - 59.0 °F 88% 30.02 in 10.0 mi Calm Calm - N/A   Clear
6:15 AM 64.4 °F - 59.0 °F 83% 30.02 in 10.0 mi Calm Calm - N/A   Clear
6:35 AM 62.6 °F - 59.0 °F 88% 30.02 in 10.0 mi Calm Calm - N/A   Clear
6:55 AM 62.6 °F - 59.0 °F 88% 30.03 in 10.0 mi Calm Calm - N/A   Clear
7:15 AM 62.6 °F - 59.0 °F 88% 30.04 in 10.0 mi Calm Calm - N/A   Clear
7:35 AM 64.4 °F - 60.8 °F 88% 30.04 in 10.0 mi Calm Calm - N/A   Clear
7:55 AM 66.2 °F - 60.8 °F 83% 30.04 in 10.0 mi Calm Calm - N/A   Clear
8:15 AM 69.8 °F - 60.8 °F 73% 30.05 in 10.0 mi Calm Calm - N/A   Clear
8:35 AM 71.6 °F - 60.8 °F 69% 30.05 in 10.0 mi Calm Calm - N/A   Clear
8:55 AM 73.4 °F - 60.8 °F 65% 30.06 in 10.0 mi Calm Calm - N/A   Clear
9:15 AM 77.0 °F - 59.0 °F 54% 30.05 in 10.0 mi SSE 5.8 mph - N/A   Clear
9:35 AM 78.8 °F - 59.0 °F 51% 30.06 in 10.0 mi SSE 5.8 mph - N/A   Clear
9:55 AM 80.6 °F 81.1 °F 59.0 °F 48% 30.06 in 10.0 mi SE 5.8 mph - N/A   Clear
10:15 AM 84.2 °F 83.8 °F 59.0 °F 42% 30.06 in 10.0 mi SSE 5.8 mph - N/A   Clear
10:35 AM 86.0 °F 84.9 °F 57.2 °F 37% 30.06 in 10.0 mi SE 5.8 mph - N/A   Clear
10:55 AM 87.8 °F 86.1 °F 55.4 °F 33% 30.06 in 10.0 mi South 8.1 mph - N/A   Clear
11:15 AM 87.8 °F 86.1 °F 55.4 °F 33% 30.06 in 10.0 mi ESE 6.9 mph - N/A   Clear
11:35 AM 89.6 °F 87.7 °F 55.4 °F 31% 30.05 in 10.0 mi SE 3.5 mph - N/A   Clear
11:55 AM 89.6 °F 87.7 °F 55.4 °F 31% 30.05 in 10.0 mi ENE 4.6 mph - N/A   Clear
12:15 PM 89.6 °F 87.3 °F 53.6 °F 29% 30.04 in 10.0 mi Calm Calm - N/A   Clear
12:35 PM 89.6 °F 87.3 °F 53.6 °F 29% 30.03 in 10.0 mi Calm Calm - N/A   Clear
12:55 PM 91.4 °F 89.1 °F 53.6 °F 28% 30.02 in 10.0 mi ESE 6.9 mph - N/A   Clear
1:15 PM 93.2 °F 90.8 °F 53.6 °F 26% 30.02 in 10.0 mi ESE 3.5 mph - N/A   Clear
1:35 PM 93.2 °F - 51.8 °F 24% 30.00 in 10.0 mi South 5.8 mph - N/A   Clear
1:55 PM 93.2 °F - 51.8 °F 24% 30.00 in 10.0 mi Calm Calm - N/A   Clear
2:15 PM 95.0 °F - 51.8 °F 23% 29.99 in 10.0 mi SE 8.1 mph - N/A   Clear
2:35 PM 95.0 °F - 51.8 °F 23% 29.98 in 10.0 mi SE 6.9 mph - N/A   Clear
2:55 PM 95.0 °F - 51.8 °F 23% 29.97 in 10.0 mi ENE 9.2 mph - N/A   Clear
3:15 PM 95.0 °F - 51.8 °F 23% 29.96 in 10.0 mi ESE 10.4 mph - N/A   Clear
3:35 PM 95.0 °F - 50.0 °F 22% 29.95 in 10.0 mi ESE 5.8 mph - N/A   Clear
3:55 PM 95.0 °F - 50.0 °F 22% 29.95 in 10.0 mi ENE 4.6 mph - N/A   Clear
4:15 PM 95.0 °F - 50.0 °F 22% 29.94 in 10.0 mi NNE 4.6 mph - N/A   Clear
4:35 PM 95.0 °F - 50.0 °F 22% 29.94 in 10.0 mi SE 4.6 mph - N/A   Clear
4:55 PM 95.0 °F - 50.0 °F 22% 29.93 in 10.0 mi Calm Calm - N/A   Clear
5:15 PM 95.0 °F - 50.0 °F 22% 29.93 in 10.0 mi East 3.5 mph - N/A   Clear
5:35 PM 95.0 °F - 50.0 °F 22% 29.93 in 10.0 mi East 4.6 mph - N/A   Clear
5:55 PM 95.0 °F - 50.0 °F 22% 29.92 in 10.0 mi ENE 6.9 mph - N/A   Clear
6:15 PM 95.0 °F - 50.0 °F 22% 29.92 in 10.0 mi East 8.1 mph - N/A   Clear
6:35 PM 93.2 °F - 50.0 °F 23% 29.92 in 10.0 mi East 4.6 mph - N/A   Clear
6:55 PM 91.4 °F - 50.0 °F 24% 29.92 in 10.0 mi ENE 5.8 mph - N/A   Clear
7:15 PM 89.6 °F - 50.0 °F 26% 29.91 in 10.0 mi East 3.5 mph - N/A   Clear
7:35 PM 87.8 °F - 51.8 °F 29% 29.92 in 10.0 mi NE 3.5 mph - N/A   Clear
7:55 PM 87.8 °F - 51.8 °F 29% 29.92 in 10.0 mi Calm Calm - N/A   Clear
8:15 PM 86.0 °F - 51.8 °F 31% 29.93 in 10.0 mi ENE 3.5 mph - N/A   Clear
8:55 PM 82.4 °F - 51.8 °F 35% 29.93 in 10.0 mi SE 4.6 mph - N/A   Clear
9:15 PM 78.8 °F - 53.6 °F 42% 29.94 in 10.0 mi East 5.8 mph - N/A   Clear
9:35 PM 78.8 °F - 53.6 °F 42% 29.94 in 10.0 mi ESE 3.5 mph - N/A   Clear
9:55 PM 78.8 °F - 53.6 °F 42% 29.95 in 10.0 mi SSE 3.5 mph - N/A   Clear
10:15 PM 78.8 °F - 51.8 °F 39% 29.94 in 10.0 mi SE 3.5 mph - N/A   Clear
10:35 PM 78.8 °F - 50.0 °F 36% 29.95 in 10.0 mi SE 4.6 mph - N/A   Clear
11:15 PM 77.0 °F - 50.0 °F 39% 29.95 in 10.0 mi SE 3.5 mph - N/A   Clear
11:35 PM 77.0 °F - 51.8 °F 41% 29.95 in 10.0 mi SE 3.5 mph - N/A   Clear